Location: *
(34.0486°S, 61.7880°E)
Time: 19:59:16
(UTC+00:00)

H-2A R/B - Pass Details

Date: 01 April 2020
Orbit: 578 x 654 km, 98.5° (Epoch: 28 May)

Event Time Altitude Azimuth Distance (km) Brightness Sun altitude
Rises 23:27:33 0° 165° (SSE) 3,013 6.0 -33.2°
Reaches altitude 10° 23:29:49 10° 162° (SSE) 2,092 5.1 -32.8°
Enters shadow 23:31:27 22° 157° (SSE) 1,456 4.3 -32.5°
